| time (UTC) | temp C | wind direction | speed KPH | gust KPH | rain 1hr cm | rain 24hr cm | rain mn cm | humidity % | barometer mb |
| 20260510135700 | 20 | 138 | 1.6 | 11.3 | 0.00 | 0.00 | 0.00 | 1 | 1017.9 |
| 20260510134700 | 20 | 145 | 8.0 | 11.3 | 0.00 | 0.00 | 0.00 | 1 | 1017.9 |
| 20260510133659 | 20 | 138 | 4.8 | 8.0 | 0.00 | 0.00 | 0.00 | 1 | 1017.9 |
| 20260510132658 | 19 | 155 | 3.2 | 6.4 | 0.00 | 0.00 | 0.00 | 1 | 1018.3 |
| 20260510131658 | 18 | 177 | 3.2 | 6.4 | 0.00 | 0.00 | 0.00 | 1 | 1017.9 |
| 20260510130657 | 18 | 158 | 1.6 | 8.0 | 0.00 | 0.00 | 0.00 | 1 | 1017.9 |
| 20260510125656 | 17 | 152 | 3.2 | 8.0 | 0.00 | 0.00 | 0.00 | 1 | 1017.9 |
| 20260510124656 | 16 | 135 | 1.6 | 1.6 | 0.00 | 0.00 | 0.00 | 1 | 1017.9 |
| 20260510123655 | 15 | 156 | 0.0 | 1.6 | 0.00 | 0.00 | 0.00 | 1 | 1017.6 |
| 20260510122655 | 15 | 157 | 1.6 | 1.6 | 0.00 | 0.00 | 0.00 | 1 | 1017.6 |
| 20260510121654 | 14 | 156 | 1.6 | 1.6 | 0.00 | 0.00 | 0.00 | 1 | 1017.6 |
| 20260510120653 | 13 | 158 | 0.0 | 1.6 | 0.00 | 0.00 | 0.00 | 1 | 1017.3 |
| 20260510115652 | 13 | 158 | 0.0 | 1.6 | 0.00 | 0.00 | 0.00 | 1 | 1017.3 |
| 20260510114651 | 13 | 158 | 1.6 | 1.6 | 0.00 | 0.00 | 0.00 | 1 | 1016.9 |
| 20260510113650 | 12 | 158 | 1.6 | 3.2 | 0.00 | 0.00 | 0.00 | 1 | 1016.9 |
| 20260510083628 | 13 | 190 | 0.0 | 0.0 | 0.00 | 0.00 | 0.00 | 1 | 1015.2 |
| 20260510082627 | 13 | 190 | 0.0 | 0.0 | 0.00 | 0.00 | 0.00 | 1 | 1015.2 |
| 20260510081626 | 13 | 190 | 0.0 | 0.0 | 0.00 | 0.00 | 0.00 | 1 | 1014.9 |
| 20260510080626 | 13 | 190 | 0.0 | 0.0 | 0.00 | 0.00 | 0.00 | 1 | 1014.9 |
| 20260510075625 | 13 | 190 | 0.0 | 0.0 | 0.00 | 0.00 | 0.00 | 1 | 1014.6 |
| 20260510074625 | 13 | 190 | 0.0 | 0.0 | 0.00 | 0.00 | 0.00 | 1 | 1014.6 |
| 20260510073624 | 14 | 190 | 0.0 | 0.0 | 0.00 | 0.00 | 0.00 | 1 | 1014.6 |
| 20260510072552 | 14 | 190 | 0.0 | 0.0 | 0.00 | 0.00 | 0.00 | 1 | 1014.6 |
| 20260510071552 | 14 | 190 | 0.0 | 0.0 | 0.00 | 0.00 | 0.00 | 1 | 1014.6 |
| 20260510070551 | 14 | 190 | 0.0 | 0.0 | 0.00 | 0.00 | 0.00 | 1 | 1014.6 |
| 20260510065550 | 15 | 190 | 0.0 | 0.0 | 0.00 | 0.00 | 0.00 | 1 | 1014.6 |
| 20260510064549 | 15 | 190 | 0.0 | 0.0 | 0.00 | 0.00 | 0.00 | 1 | 1014.6 |
| 20260510063548 | 15 | 190 | 0.0 | 0.0 | 0.00 | 0.00 | 0.00 | 1 | 1014.6 |
| 20260510062548 | 15 | 190 | 0.0 | 0.0 | 0.00 | 0.00 | 0.00 | 1 | 1014.6 |
| 20260510061547 | 16 | 190 | 0.0 | 0.0 | 0.00 | 0.00 | 0.00 | 1 | 1014.6 |
| 20260510060546 | 16 | 190 | 0.0 | 3.2 | 0.00 | 0.00 | 0.00 | 1 | 1014.6 |
| 20260510055545 | 16 | 196 | 1.6 | 3.2 | 0.00 | 0.00 | 0.00 | 1 | 1014.6 |
| 20260510054442 | 16 | 153 | 0.0 | 3.2 | 0.00 | 0.00 | 0.00 | 1 | 1014.6 |
| 20260510053441 | 16 | 148 | 1.6 | 4.8 | 0.00 | 0.00 | 0.00 | 1 | 1014.6 |
| 20260510052410 | 16 | 155 | 1.6 | 4.8 | 0.00 | 0.00 | 0.00 | 1 | 1014.6 |
| 20260510051409 | 17 | 146 | 1.6 | 4.8 | 0.00 | 0.00 | 0.00 | 1 | 1014.6 |
| 20260510050408 | 16 | 136 | 1.6 | 3.2 | 0.00 | 0.00 | 0.00 | 1 | 1014.9 |
| 20260510045407 | 16 | 160 | 1.6 | 4.8 | 0.00 | 0.00 | 0.00 | 1 | 1014.9 |
| 20260510044407 | 17 | 148 | 1.6 | 4.8 | 0.00 | 0.00 | 0.00 | 1 | 1014.6 |
| 20260510043406 | 17 | 148 | 1.6 | 4.8 | 0.00 | 0.00 | 0.00 | 1 | 1014.6 |
| 20260510042405 | 17 | 166 | 1.6 | 4.8 | 0.00 | 0.00 | 0.00 | 1 | 1014.6 |
| 20260510041404 | 17 | 148 | 1.6 | 4.8 | 0.00 | 0.00 | 0.00 | 1 | 1014.6 |
| 20260510040403 | 17 | 166 | 1.6 | 4.8 | 0.00 | 0.00 | 0.00 | 1 | 1014.6 |
| 20260510035403 | 17 | 214 | 1.6 | 8.0 | 0.00 | 0.00 | 0.00 | 1 | 1014.6 |
| 20260510034402 | 17 | 185 | 1.6 | 8.0 | 0.00 | 0.00 | 0.00 | 1 | 1014.6 |
| 20260510033401 | 17 | 211 | 1.6 | 4.8 | 0.00 | 0.00 | 0.00 | 2 | 1014.6 |
| 20260510032400 | 17 | 207 | 1.6 | 4.8 | 0.00 | 0.00 | 0.00 | 5 | 1014.6 |
| 20260510031400 | 18 | 164 | 1.6 | 6.4 | 0.00 | 0.00 | 0.00 | 10 | 1014.6 |
| 20260510030359 | 18 | 211 | 3.2 | 6.4 | 0.00 | 0.00 | 0.00 | 12 | 1014.6 |
| 20260510025358 | 18 | 204 | 1.6 | 6.4 | 0.00 | 0.00 | 0.00 | 14 | 1014.2 |
| 20260510024357 | 18 | 203 | 3.2 | 9.7 | 0.00 | 0.00 | 0.00 | 16 | 1014.2 |
| 20260510023357 | 18 | 211 | 3.2 | 9.7 | 0.00 | 0.00 | 0.00 | 16 | 1013.9 |
| 20260510022254 | 19 | 209 | 3.2 | 6.4 | 0.00 | 0.00 | 0.00 | 21 | 1013.9 |
| 20260510021253 | 18 | 219 | 3.2 | 8.0 | 0.00 | 0.00 | 0.00 | 17 | 1013.5 |
| 20260510020221 | 18 | 167 | 3.2 | 8.0 | 0.00 | 0.00 | 0.00 | 8 | 1013.2 |
| 20260510015220 | 18 | 199 | 3.2 | 6.4 | 0.00 | 0.00 | 0.00 | 1 | 1013.2 |